Location: Bodest
(46.3000°N, 22.5667°E)
Time: 21:22:14
(UTC+00:00)

ATLAS 3B R/B - Pass Details

Date: 16 October 2021
Orbit: 989 x 1206 km, 63.8° (Epoch: 25 November)

Event Time Altitude Azimuth Distance (km) Brightness Sun altitude
Rises 18:28:57 0° 262° (W) 3,740 6.5 -29.4°
Reaches altitude 10° 18:31:56 10° 274° (W) 2,817 5.8 -29.9°
Maximum altitude 18:37:33 28° 332° (NNW) 1,858 4.3 -30.8°
Enters shadow 18:42:52 12° 27° (NNE) 2,785 4.8 -31.7°
